Regional Weather Roundup
Issued by NWS

Home | Current Version | Previous Version | Text Only | Print | Product List | Glossary Off
Versions: 1 2 3 4 5 6 7 8 9 10 11 12 13 14 15 16 17 18 19 20 21 22 23 24 25 26 27 28 29 30 31 32 33 34 35 36 37 38 39 40 41 42 43 44 45 46 47 48 49 50

000
ASUS43 KOAX 042102
RWRNE

WEATHER ROUNDUP FOR NEBRASKA
NATIONAL WEATHER SERVICE OMAHA NE
300 PM CST WED MAR 04 2015

NOTES: SATELLITE DATA IS BEING USED TO AUGMENT CLOUD COVER ABOVE
       12000 FEET.
       "FAIR" INDICATES FEW OR NO CLOUDS BELOW 12,000 FEET WITH NO
       SIGNIFICANT WEATHER AND/OR OBSTRUCTIONS TO VISIBILITY.

  * THESE STATIONS DO NOT REPORT WEATHER SUCH AS RAIN...SNOW OR FOG.

NEZ001>004-019>022-054>056-042200-
NEBRASKA PANHANDLE

CITY           SKY/WX    TMP DP  RH WIND       PRES   REMARKS
SCOTTSBLUFF    SUNNY     25   3  38 NW13      30.16F WCI  14
ALLIANCE       SUNNY     23   0  36 NW21      30.14F WCI   8
CHADRON        SUNNY     18   4  54 W14       30.21F WCI   4
KIMBALL        MOSUNNY   24  -1  34 NW15      30.08F WCI  11
SIDNEY         MOSUNNY   25   5  42 W15       30.14F WCI  13
$$

NEZ057>060-069>072-079>082-042200-
SOUTHWEST NEBRASKA

CITY           SKY/WX    TMP DP  RH WIND       PRES   REMARKS
NORTH PLATTE   MOSUNNY   31  -1  25 NW21G26   30.20F WCI  18
IMPERIAL         N/A     29   7  39 N18       30.19F WCI  16
LEXINGTON      MOSUNNY   31  10  41 N15G21    30.22F WCI  21
MCCOOK         SUNNY     31   6  35 NW12G23   30.23F WCI  22
$$

NEZ005>010-023>029-035>040-094-042200-
NORTH CENTRAL NEBRASKA

CITY           SKY/WX    TMP DP  RH WIND       PRES   REMARKS
VALENTINE      PTSUNNY   18   1  47 NW16G25   30.25S WCI   3
AINSWORTH      SUNNY     20  -2  37 NW14G24   30.23F WCI   7
BROKEN BOW     MOSUNNY   29  -1  27 W15G29    30.21F WCI  18
ORD            SUNNY     27  -4  26 NW14G26   30.24F WCI  16
$$

NEZ041-046>049-061>064-073>077-083>087-042200-
SOUTH CENTRAL NEBRASKA

CITY           SKY/WX    TMP DP  RH WIND       PRES   REMARKS
GRAND ISLAND   MOSUNNY   29   4  34 NW16      30.26F WCI  17
HASTINGS       MOSUNNY   29   8  41 N17       30.25F WCI  17
HEBRON         PTSUNNY   32   5  32 N10G21    30.28F WCI  23
KEARNEY *      FAIR      28   7  40 NW15      30.24F WCI  17
$$

NEZ011>018-030>034-042>045-042200-
NORTHEAST NEBRASKA

CITY           SKY/WX    TMP DP  RH WIND       PRES   REMARKS
NORFOLK        SUNNY     26  -4  27 NW20G31   30.26F WCI  12
BLAIR          SUNNY     28  -3  25 NW22G32   30.27R WCI  14
COLUMBUS *     SUNNY     28  -4  24 NW21G33   30.29R WCI  15
FREMONT        SUNNY     30  -4  22 NW24G32   30.29S WCI  16
TEKAMAH        SUNNY     27  -3  27 NW23G32   30.30R WCI  12
$$

NEZ050>053-065>068-078-088>093-042200-
SOUTHEAST NEBRASKA

CITY           SKY/WX    TMP DP  RH WIND       PRES   REMARKS
LINCOLN        SUNNY     31   1  28 N24G30    30.29S WCI  17
OMAHA EPPLEY   MOSUNNY   29  -4  24 NW26G32   30.28R WCI  14
FALLS CITY     MOSUNNY   32   4  30 N17       30.27F WCI  21
$$

NEZ044-045-051>053-067-042200-
OMAHA AREA

CITY           SKY/WX    TMP DP  RH WIND       PRES   REMARKS
OMAHA EPPLEY   MOSUNNY   29  -4  24 NW26G32   30.28R WCI  14
BLAIR          SUNNY     28  -3  25 NW22G32   30.27R WCI  14
FREMONT        SUNNY     30  -4  22 NW24G32   30.29S WCI  16
OFFUTT AFB     SUNNY     30  -3  24 NW17G26   30.27R WCI  18
$$



USA.gov is the U.S. government's official web portal to all federal, state and local government web resources and services.